Find Starlink 36256

NORAD ID: 67103 Int'l Des: 2025-299 Owner: SPXS Country: US Constellation: starlink operational
LEOCIRCULAR

現在のビュー

3D地球を読み込み中...

Starlink 36256について

説明を読み込み中...

次回通過

Passes for default location (London). Set your location on the main map for personalized predictions.

高度履歴

Loading altitude history...

軌道要素

1 67103U 25299B 26146.15738899 .00018011 00000-0 66215-3 0 9997
2 67103 43.0017 91.5268 0001226 264.6216 95.4496 15.27593283 24966
Epoch: May 26, 2026 • Age: 14 hours

現在のステータス

高度 493.7 km
速度 7.62 km/s
衛星直下点 -38.69°S, 178.36°W
打ち上げ日 Dec 15, 2025
運用期間 0.4 years
タイプ internet

技術仕様

分類 Payload
質量 575.00 kg
乾燥質量 530.00 kg
総質量 575.00 kg
長さ 0.30 m
直径 4.10 m
スパン 29.00 m
形状 Box + pan
製造者 SPXS
バスタイプ Starlink V2MO
フェーズステータス In Orbit
所有者/国 SPXS/US

Most Searched